[Iaude] MPEC J210: 2024 JB6 [a=2.67,e=0.75,i=7.9,H=19.9,PHA]
    mpec at cfa.harvard.edu 
    mpec at cfa.harvard.edu
       
    Wed May  8 22:33:32 EDT 2024
    
    
  
M.P.E.C. 2024-J210                                  Issued 2024 May 9, 02:31 UT
     The Minor Planet Electronic Circulars contain information on unusual
         minor planets, routine data on comets and natural satellites,
         and occasional editorial announcements.  They are published
    on behalf of Division F of the International Astronomical Union by the
          Minor Planet Center, Smithsonian Astrophysical Observatory,
                          Cambridge, MA 02138, U.S.A.
			  
             Prepared using the Tamkin Foundation Computer Network
                              MPC at CFA.HARVARD.EDU
            URL https://www.minorplanetcenter.net/    ISSN 1523-6714
                                    2024 JB6                                    
Observations:
     K24J06B  C2024 04 18.58596315 52 32.863-08 56 27.45         22.59GVEJ210F52
     K24J06B  C2024 04 18.59845115 52 32.263-08 56 22.89         22.55GVEJ210F52
     K24J06B  C2024 04 18.61094515 52 31.679-08 56 18.26         23.44GVEJ210F52
     K24J06B* C2024 05 06.48009415 31 45.121-06 50 00.41         21.75wXEJ210F52
     K24J06B  C2024 05 06.49199215 31 43.946-06 49 54.76         22.01wXEJ210F52
     K24J06B  C2024 05 06.50386215 31 42.773-06 49 49.22         22.10wXEJ210F52
     K24J06B  C2024 05 06.51575215 31 41.598-06 49 43.70         21.57wXEJ210F52
     K24J06B  C2024 05 06.56978015 31 36.280-06 49 17.86         21.11GVEJ210F51
     K24J06B  C2024 05 06.57042515 31 36.207-06 49 17.71         21.81GVEJ210F51
     K24J06B  C2024 05 07.26968215 30 29.260-06 43 49.96         21.6 GVEJ210H01
     K24J06B  C2024 05 07.27684715 30 28.529-06 43 46.51         21.4 GVEJ210H01
     K24J06B  C2024 05 07.28629015 30 27.589-06 43 42.14         21.4 GVEJ210H01
     K24J06B  C2024 05 07.29087915 30 27.117-06 43 39.79         21.3 GVEJ210H01
     K24J06B KC2024 05 07.30945715 30 25.280-06 43 31.20         21.38GVEJ210V06
     K24J06B KC2024 05 07.34425015 30 21.770-06 43 14.40         21.91GVEJ210V06
     K24J06B KC2024 05 07.34559515 30 21.630-06 43 13.90         21.95GVEJ210V06
     K24J06B KC2024 05 07.34693915 30 21.480-06 43 13.30         21.83GVEJ210V06
     K24J06B KC2024 05 08.42860 15 28 34.00 -06 34 39.9          21.3 RVEJ210291
     K24J06B  C2024 05 08.43258015 28 33.974-06 34 36.92         21.46GVEJ210F52
     K24J06B KC2024 05 08.43759 15 28 33.08 -06 34 35.7          21.7 RVEJ210291
     K24J06B  C2024 05 08.44309215 28 32.876-06 34 31.92         21.52GVEJ210F52
     K24J06B  C2024 05 08.45361415 28 31.800-06 34 26.78         21.10GVEJ210F52
     K24J06B  C2024 05 08.46413115 28 30.697-06 34 21.85         21.02GVEJ210F52
Observer details:
291 LPL/Spacewatch II.  Observer M. T. Read.  1.8-m f/2.7 reflector + CCD.
F51 Pan-STARRS 1, Haleakala.  Observers J. Herman, T. Lowe, P. Minguez, A.
    Schultz, I. Smith.  Measurers K. Chambers, T. de Boer, J. Fairlamb, H.
    Gao, M. Huber, C.-C. Lin, E. Magnier, Y. Ramanjooloo, R. Wainscoat, R.
    Weryk.  1.8-m Ritchey-Chretien + CCD.
F52 Pan-STARRS 2, Haleakala.  Observers J. Herman, T. Lowe, P. Minguez, A.
    Schultz, I. Smith.  Measurers K. Chambers, T. de Boer, J. Fairlamb, H.
    Gao, M. Huber, C.-C. Lin, E. Magnier, Y. Ramanjooloo, R. Wainscoat, R.
    Weryk.  1.8-m Ritchey-Chretien + CCD.
H01 Magdalena Ridge Observatory, Socorro.  Observers W. H. Ryan, E. V. Ryan.
    Measurer W. H. Ryan.  2.4-m f/8.9 Ritchey-Chretien + CCD.
V06 Catalina Sky Survey-Kuiper.  Observer H. Groeller.  Measurers T. Beuden,
    V. F. Carvajal, D. Fay, J. B. Fazekas, D. C. Fuls, A. R. Gibbs, A. D.
    Grauer, H. Groeller, J. K. Hogan, R. A. Kowalski, S. M. Larson, G. J.
    Leonard, D. Rankin, R. L. Seaman, F. C. Shelly, K. W. Wierzchos.  1.55-m
    reflector + 1K CCD.
Orbital elements:
2024 JB6                                            PHA, Earth MOID = 0.0096 AU
Epoch 2024 Mar. 31.0 TT = JDT 2460400.5                 Veres                   
M 322.51865              (2000.0)            P               Q                  
n   0.22620375     Peri.  255.51142     +0.98154285     +0.13377632             
a   2.6676951      Node    96.66404     -0.07289471     +0.92237991             
e   0.7530000      Incl.    7.90873     -0.17680497     +0.36237990             
P   4.36           H   19.98          G   0.15           U   8                  
Residuals in seconds of arc
240418 F52  0.1+  0.0     240506 F51  0.0   0.0     240507 V06  0.3-  0.1-
240418 F52  0.1-  0.0     240507 H01  0.1+  0.0     240508 291  0.0   0.2+
240418 F52  0.0   0.0     240507 H01  0.1-  0.0     240508 F52  0.1-  0.0
240506 F52  0.1+  0.0     240507 H01  0.1+  0.1-    240508 291  0.1+  0.1+
240506 F52  0.1+  0.1+    240507 H01  0.1-  0.1+    240508 F52  0.1-  0.0
240506 F52  0.1+  0.0     240507 V06  0.0   0.2-    240508 F52  0.2+  0.1+
240506 F52  0.1+  0.1-    240507 V06  0.1-  0.1+    240508 F52  0.1+  0.0
240506 F51  0.2+  0.2+    240507 V06  0.1-  0.0
Ephemeris:
2024 JB6                 a,e,i = 2.67, 0.75, 8                   q = 0.6589
Date    TT    R. A. (2000) Decl.     Delta      r    Elong.  Phase     V
2024 04 09    15 57 44.9 -09 49 23   1.3824  2.2357   138.8    17.2    23.3
...
2024 04 24    15 47 51.2 -08 21 37   1.1395  2.0938   154.8    11.8    22.6
...
2024 05 02    15 38 23.6 -07 24 25   1.0298  2.0153   163.1     8.4    22.1
...
2024 05 08    15 29 17.3 -06 37 59   0.9578  1.9552   167.4     6.5    21.8
2024 05 09    15 27 36.5 -06 30 03   0.9467  1.9451   167.8     6.3    21.8
2024 05 10    15 25 53.0 -06 22 05   0.9359  1.9349   168.0     6.2    21.8
...
2024 05 16    15 14 40.0 -05 34 10   0.8765  1.8732   165.9     7.6    21.6
...
2024 05 24    14 57 48.7 -04 32 43   0.8121  1.7892   157.2    12.7    21.5
...
2024 06 08    14 23 51.8 -03 04 48   0.7334  1.6260   136.3    25.6    21.5
M. P. C. Staff               (C) Copyright 2024 MPC           M.P.E.C. 2024-J210
    
    
More information about the Iaude
mailing list